Flag Weather past 2 weeks in Trujillo, La Libertad, Peru

Now
64 °F

Overcast.


Feels Like: 64 °F
Forecast: 65 / 75 °F
Wind: 9 mph from Southeast

Location: Trujillo Airport

Current Time: Nov 20, 2014 at 10:30:14 PM

Latest Report: Nov 20, 2014 at 10:00 PM


Visibility: 5 mi

Pressure: 29.95 "Hg

Humidity: 88%

Dew point: 61 °F

Location of TrujilloLocation

Historic Weather in Trujillo — Graph

°F

Trujillo temperature yesterday

Maximum temperature yesterday: 72 °F (at 1:00 PM)
Minimum temperature yesterday: 64 °F (at 12:00 AM)
Average temperature yesterday: 67 °F

Past Weeks' High & Low Weather Summary

 TemperatureHumidityPressure
High72 °F (Nov 19, 1:00 PM)100% (Nov 17, 9:00 AM)30.01 "Hg (Nov 17, 9:00 AM)
Low46 °F (Nov 17, 9:00 AM)43% (Nov 19, 1:00 AM)29.83 "Hg (Nov 8, 3:00 PM)
Average66 °F84%29.94 "Hg
* Reported Nov 5 9:00 PM — Nov 20 9:00 PM, Trujillo, Weather by CustomWeather, © 2014

Note: Actual official high and low records may vary slightly from our data, if they occured in-between our weather recording intervals... More about our weather records

Advertising

Trujillo weather history for previous 24 hours

 ConditionsComfort  
Time TempWeatherWind HumidityBarometerVisibility
9:00 PM
Nov 20
66 °FOvercast.14 mph83%29.95 "Hg5 mi
8:00 PM66 °FOvercast.13 mph83%29.92 "Hg5 mi
7:00 PM64 °FPassing clouds.10 mph88%29.89 "Hg4 mi
6:00 PM66 °FPassing clouds.9 mph83%29.89 "Hg6 mi
5:00 PM66 °FClear.10 mph83%29.86 "Hg6 mi
4:00 PM68 °FClear.13 mph78%29.86 "Hg6 mi
3:00 PM68 °FOvercast.13 mph78%29.89 "Hg5 mi
2:00 PM68 °FOvercast.13 mph78%29.89 "Hg6 mi
1:00 PM66 °FOvercast.14 mph83%29.92 "Hg5 mi
12:00 PM66 °FOvercast.13 mph83%29.95 "Hg5 mi
11:00 AM66 °FOvercast.13 mph83%29.95 "Hg4 mi
10:00 AM66 °FOvercast.13 mph83%29.98 "Hg4 mi
9:00 AM64 °FOvercast.10 mph88%29.98 "Hg4 mi
8:00 AM64 °FMostly cloudy.10 mph88%30.01 "Hg4 mi
7:00 AM63 °FLow clouds.9 mph94%29.98 "Hg4 mi
6:00 AM63 °FFog.8 mph94%29.95 "Hg3 mi
5:00 AM63 °FFog.8 mph94%29.92 "Hg3 mi
4:00 AM64 °FFog.8 mph88%29.92 "Hg3 mi
3:00 AM64 °FFog.9 mph88%29.92 "Hg3 mi
2:00 AM64 °FLow clouds.8 mph88%29.95 "Hg5 mi
1:00 AM64 °FLow clouds.8 mph88%29.98 "Hg4 mi
12:00 AM66 °FOvercast.8 mph83%29.98 "Hg6 mi
11:00 PM
Nov 19
66 °FMostly cloudy.9 mph83%29.98 "Hg5 mi
10:00 PM66 °FOvercast.8 mph83%29.98 "HgN/A
Weather by CustomWeather, © 2014

See weather overviewHow to use our weather pages